[[{"header":{"parameterUnit":"m.s-1","parameterCategory":2,"la1":30.2992,"la2":30.254,"lo1":-89.0895,"lo2":-89.0443,"dy":0.0025,"dx":0.0025,"nx":19,"ny":19,"refTime":"2026-03-07T03:00:00:Z","depth":"0","parameterNumber":2,"parameterNumberName":"U-component_of_CURRENTS"},"data":[0,0,0,0.2134,0.2135,0.2154,0.2154,0.2185,0.2185,0,0,0,0,0,0,0,0,0,0,0,0.2123,0.2123,0.2134,0.2135,0.2154,0.2154,0.2185,0.2185,0,0,0,0,0,0,0,0,0,0,0,0.2122,0.2123,0.2123,0.2135,0.2154,0.2154,0.2185,0.2165,0,0,0,0,0,0,0,0,0,0,0.2144,0.2124,0.2123,0.2123,0.2136,0.2154,0.2154,0.2164,0.2166,0.2184,0,0.2196,0,0.2202,0.2189,0.2189,0,0,0,0.2119,0.2122,0.2146,0.2123,0.2136,0.2154,0.2141,0.2165,0.2168,0.2187,0.2196,0.2197,0.2203,0.219,0.219,0.2309,0.231,0,0,0.2118,0.2106,0.2144,0.2148,0.2153,0.214,0.2142,0.2166,0.2164,0.2196,0.2198,0.2203,0.219,0.219,0.2308,0.2309,0,0,0,0.2126,0.2105,0.2127,0.2147,0.2156,0.2141,0.2143,0.2162,0.2175,0.2199,0.2203,0.219,0.2191,0.2307,0.2309,0.2332,0,0,0,0.2124,0.2112,0.2127,0.2117,0.2156,0.2155,0.2138,0.2173,0.2176,0.2203,0.219,0.2192,0.2306,0.2308,0.233,0.2367,0,0,0,0.212,0.211,0.2121,0.2117,0.2136,0.2155,0.2168,0.2173,0.2181,0.2189,0.2192,0.2306,0.2308,0.2327,0.2362,0.2345,0,0,0,0.2095,0.2096,0.212,0.2131,0.2136,0.2181,0.2168,0.2188,0.2197,0.2191,0.2306,0.2309,0.2326,0.2359,0.2343,0.2239,0.224,0,0,0.2079,0.2093,0.2104,0.2127,0.2171,0.2176,0.2226,0.2228,0.2239,0.2293,0.2296,0.2331,0.2362,0.2345,0.2361,0.2357,0,0,0,0.2089,0.2103,0.2119,0.2155,0.2194,0.2242,0.2252,0.2278,0.2326,0.2259,0.2367,0.2388,0.2374,0.2309,0.2308,0.2258,0.2318,0.2318,0.2318,0.2032,0.2083,0.2115,0.2184,0.2225,0.2291,0.2341,0.2389,0.2369,0.2411,0.2432,0.2478,0.2411,0.2408,0.2361,0.2448,0.2448,0.2448,0.2448,0.202,0.2037,0.2128,0.2175,0.2257,0.2315,0.2431,0.2448,0.2524,0.2508,0.2492,0.2372,0.2407,0.2357,0.245,0.245,0.245,0.245,0.2449,0.1972,0.1987,0.204,0.2125,0.2216,0.2313,0.2403,0.2484,0.2554,0.2583,0.2451,0.2449,0.2378,0.2533,0.2533,0.2533,0.2533,0.2533,0.2533,0.1879,0.1942,0.1972,0.2063,0.2117,0.2211,0.2364,0.2434,0.2478,0.2499,0.2496,0.24,0.2503,0.2469,0.2535,0.2535,0.2534,0.2534,0.2534,0.1801,0.1832,0.1867,0.191,0.2021,0.2022,0.2197,0.227,0.2354,0.2352,0.2335,0.2439,0.2416,0.2416,0.2381,0.242,0.242,0.242,0.242,0.1729,0.1754,0.1776,0.1811,0.1874,0.1932,0.1909,0.2013,0.2146,0.2181,0.2265,0.2216,0.2223,0.2187,0.2192,0.2153,0.2133,0.2133,0.2133,0.1678,0.1698,0.1675,0.1722,0.1785,0.1803,0.1682,0.169,0.1939,0.2122,0.2223,0.2235,0.2167,0.2182,0.2127,0.2138,0.2073,0,0]},{"header":{"parameterUnit":"m.s-1","parameterCategory":2,"la1":30.2992,"la2":30.254,"lo1":-89.0895,"lo2":-89.0443,"dy":0.0025,"dx":0.0025,"nx":19,"ny":19,"refTime":"2026-03-07T03:00:00:Z","depth":"0","parameterNumber":3,"parameterNumberName":"V-component_of_CURRENTS"},"data":[0,0,0,0.0117,0.0117,0.01,0.01,0.007,0.007,0,0,0,0,0,0,0,0,0,0,0,0.0123,0.0123,0.0117,0.0117,0.01,0.01,0.007,0.007,0,0,0,0,0,0,0,0,0,0,0,0.0123,0.0123,0.0123,0.0117,0.01,0.01,0.007,0.0084,0,0,0,0,0,0,0,0,0,0,0.0101,0.0109,0.0123,0.0123,0.0117,0.01,0.01,0.0085,0.0083,0.0077,0,0.0078,0,0.0076,0.0068,0.0068,0,0,0,0.0112,0.0111,0.0107,0.0123,0.0117,0.01,0.0106,0.0084,0.0082,0.0075,0.0077,0.0076,0.0075,0.0068,0.0068,0.0083,0.0083,0,0,0.0113,0.0118,0.0108,0.0106,0.0117,0.0107,0.0106,0.0083,0.0082,0.0077,0.0076,0.0075,0.0068,0.0068,0.0082,0.0083,0,0,0,0.0119,0.0118,0.0115,0.0107,0.0106,0.0107,0.0105,0.0083,0.0082,0.0075,0.0074,0.0068,0.0068,0.0082,0.0082,0.0145,0,0,0,0.012,0.0122,0.0116,0.0118,0.0106,0.0096,0.0106,0.0084,0.0081,0.0074,0.0068,0.0067,0.0081,0.0082,0.0142,0.0208,0,0,0,0.0123,0.0123,0.0122,0.0118,0.0113,0.0096,0.0094,0.0083,0.0081,0.0068,0.0067,0.0081,0.0082,0.014,0.0203,0.026,0,0,0,0.0126,0.0142,0.0122,0.0141,0.0113,0.0131,0.0094,0.0098,0.0093,0.0068,0.0082,0.0082,0.0139,0.02,0.0257,0.0306,0.0326,0,0,0.0152,0.0145,0.0158,0.0141,0.0172,0.0133,0.0164,0.0135,0.0102,0.0087,0.0087,0.0143,0.0203,0.0259,0.0354,0.0373,0,0,0,0.017,0.0182,0.0187,0.0199,0.0198,0.021,0.0178,0.0166,0.0152,0.0103,0.0142,0.0179,0.0212,0.0234,0.0249,0.017,0.0086,0.0086,0.0086,0.0216,0.0219,0.0251,0.0257,0.0268,0.0262,0.0273,0.0251,0.0198,0.0203,0.0227,0.0316,0.0338,0.0351,0.0268,0.0204,0.0204,0.0204,0.0205,0.0274,0.03,0.0304,0.0338,0.0346,0.037,0.0365,0.034,0.0361,0.0293,0.0321,0.0296,0.0371,0.0277,0.0209,0.0208,0.0207,0.0207,0.0207,0.0319,0.0332,0.0349,0.0396,0.044,0.0445,0.0529,0.0496,0.0447,0.0474,0.0486,0.0485,0.0406,0.0475,0.0475,0.0476,0.0476,0.0477,0.0477,0.0359,0.0375,0.0423,0.046,0.0509,0.0583,0.0628,0.0664,0.0648,0.0594,0.0593,0.0435,0.0399,0.0393,0.0486,0.0484,0.0483,0.0482,0.0482,0.0418,0.0422,0.0496,0.0547,0.0658,0.077,0.0805,0.0868,0.0868,0.0867,0.0628,0.0649,0.0644,0.0631,0.063,0.0779,0.0779,0.0779,0.0779,0.0458,0.0463,0.057,0.0664,0.0787,0.0865,0.1016,0.103,0.0887,0.0787,0.0704,0.0623,0.0614,0.0601,0.0588,0.0583,0.0717,0.0716,0.0716,0.0502,0.053,0.0617,0.0701,0.0843,0.0979,0.1096,0.1123,0.0895,0.0701,0.0588,0.0591,0.0452,0.0445,0.0403,0.0391,0.0376,0,0]}],[{"header":{"parameterUnit":"m.s-1","parameterCategory":2,"la1":30.2992,"la2":30.254,"lo1":-89.0895,"lo2":-89.0443,"dy":0.0025,"dx":0.0025,"nx":19,"ny":19,"refTime":"2026-03-07T03:00:00:Z","depth":"2","parameterNumber":2,"parameterNumberName":"U-component_of_CURRENTS"},"data":[0,0,0,0.1863,0.1864,0.1923,0.1923,0.1961,0.1961,0,0,0,0,0,0,0,0,0,0,0,0.1833,0.1834,0.1863,0.1865,0.1923,0.1923,0.1961,0.1961,0,0,0,0,0,0,0,0,0,0,0,0.1833,0.1834,0.1834,0.1865,0.1923,0.1923,0.1961,0.1924,0,0,0,0,0,0,0,0,0,0,0.1871,0.1852,0.1834,0.1834,0.1865,0.1923,0.1923,0.1922,0.1926,0.1927,0,0.1937,0,0.1958,0.1964,0.1964,0,0,0,0.1856,0.1849,0.1868,0.1834,0.1866,0.1923,0.1894,0.1925,0.1929,0.1931,0.1938,0.194,0.1958,0.1964,0.1964,0.2048,0.2049,0,0,0.1853,0.184,0.1865,0.1871,0.1883,0.1892,0.1896,0.1927,0.193,0.1938,0.1941,0.1959,0.1964,0.1964,0.2047,0.2048,0,0,0,0.1849,0.1838,0.1857,0.1868,0.1887,0.1894,0.1899,0.1928,0.1935,0.1942,0.1959,0.1964,0.1965,0.2047,0.2048,0.2092,0,0,0,0.1847,0.1837,0.1855,0.1848,0.1886,0.1914,0.1898,0.1933,0.1938,0.1959,0.1964,0.1965,0.2046,0.2047,0.2089,0.2119,0,0,0,0.183,0.1835,0.1843,0.1847,0.1878,0.1914,0.1923,0.1934,0.1949,0.1964,0.1965,0.2046,0.2047,0.2087,0.2115,0.213,0,0,0,0.1813,0.1824,0.1843,0.1854,0.1878,0.1919,0.1923,0.1957,0.1972,0.1965,0.2046,0.2048,0.2086,0.2112,0.2128,0.2016,0.2018,0,0,0.1816,0.1824,0.1829,0.1848,0.1893,0.191,0.1968,0.1993,0.1996,0.203,0.2032,0.209,0.2115,0.213,0.2104,0.2103,0,0,0,0.1823,0.1833,0.1844,0.1877,0.191,0.1971,0.2,0.2026,0.2079,0.2016,0.2109,0.2124,0.2131,0.2059,0.2059,0.2055,0.2055,0.2055,0.2054,0.1802,0.1832,0.1852,0.19,0.1938,0.2022,0.2072,0.2121,0.2108,0.2151,0.2173,0.2236,0.2161,0.216,0.2183,0.2183,0.2183,0.2183,0.2184,0.1806,0.1806,0.1865,0.1905,0.1981,0.2043,0.2151,0.2185,0.2264,0.2242,0.2246,0.2127,0.2162,0.2187,0.2187,0.2186,0.2186,0.2185,0.2185,0.1772,0.1778,0.1818,0.1885,0.197,0.2068,0.2147,0.2249,0.2303,0.2339,0.2232,0.223,0.2249,0.2327,0.2327,0.2327,0.2327,0.2328,0.2328,0.1715,0.1752,0.1783,0.1864,0.1906,0.2009,0.2158,0.2209,0.2267,0.2285,0.2283,0.2284,0.228,0.2258,0.2331,0.233,0.233,0.233,0.2329,0.1664,0.1682,0.1714,0.1756,0.1857,0.1859,0.2027,0.2085,0.2169,0.2165,0.2243,0.2244,0.2216,0.2214,0.2191,0.2242,0.2242,0.2242,0.2242,0.161,0.1628,0.1643,0.1675,0.1725,0.1789,0.1747,0.1815,0.1963,0.2017,0.2027,0.1957,0.1965,0.1919,0.1924,0.1893,0.1868,0.1867,0.1866,0.1574,0.1583,0.1561,0.1596,0.1645,0.1653,0.1541,0.149,0.1638,0.1851,0.1957,0.2218,0.2138,0.2142,0.2089,0.209,0.2047,0,0]},{"header":{"parameterUnit":"m.s-1","parameterCategory":2,"la1":30.2992,"la2":30.254,"lo1":-89.0895,"lo2":-89.0443,"dy":0.0025,"dx":0.0025,"nx":19,"ny":19,"refTime":"2026-03-07T03:00:00:Z","depth":"2","parameterNumber":3,"parameterNumberName":"V-component_of_CURRENTS"},"data":[0,0,0,-0.0083,-0.0083,-0.0085,-0.0085,-0.0083,-0.0083,0,0,0,0,0,0,0,0,0,0,0,-0.0083,-0.0083,-0.0083,-0.0083,-0.0085,-0.0085,-0.0083,-0.0083,0,0,0,0,0,0,0,0,0,0,0,-0.0083,-0.0083,-0.0083,-0.0083,-0.0085,-0.0085,-0.0083,-0.0082,0,0,0,0,0,0,0,0,0,0,-0.0081,-0.0074,-0.0083,-0.0083,-0.0083,-0.0085,-0.0085,-0.0082,-0.0082,-0.0081,0,-0.0082,0,-0.0082,-0.0082,-0.0082,0,0,0,-0.0083,-0.0074,-0.0082,-0.0083,-0.0083,-0.0085,-0.0084,-0.0082,-0.0082,-0.0081,-0.0082,-0.0082,-0.0082,-0.0082,-0.0082,-0.0053,-0.0053,0,0,-0.0083,-0.0075,-0.0083,-0.0083,-0.0085,-0.0084,-0.0084,-0.0082,-0.0078,-0.0082,-0.0082,-0.0082,-0.0082,-0.0082,-0.0053,-0.0053,0,0,0,-0.0083,-0.0075,-0.0083,-0.0083,-0.0083,-0.0084,-0.0084,-0.0078,-0.0083,-0.0082,-0.0082,-0.0082,-0.0082,-0.0054,-0.0053,0.0009,0,0,0,-0.0083,-0.0075,-0.0083,-0.0078,-0.0083,-0.0079,-0.0079,-0.0083,-0.0083,-0.0082,-0.0082,-0.0082,-0.0054,-0.0053,0.0006,0.0055,0,0,0,-0.0083,-0.0075,-0.0077,-0.0077,-0.0079,-0.0079,-0.0084,-0.0083,-0.0083,-0.0082,-0.0082,-0.0054,-0.0054,0.0004,0.0051,0.0102,0,0,0,-0.0072,-0.0053,-0.0077,-0.0051,-0.0079,-0.0056,-0.0084,-0.0071,-0.0067,-0.0082,-0.0054,-0.0053,0.0004,0.0048,0.0099,0.0133,0.015,0,0,-0.0039,-0.0049,-0.0032,-0.0054,-0.0017,-0.0056,-0.0011,-0.0026,-0.0056,-0.0055,-0.0054,0.0007,0.005,0.0101,0.0174,0.019,0,0,0,-0.0015,-0.0003,0.0005,0.0018,0.0018,0.004,0.0015,0.0005,0.0001,-0.0052,0.0004,0.003,0.006,0.0074,0.0086,-0.005,-0.005,-0.005,-0.005,0.0051,0.0048,0.0086,0.0089,0.0104,0.0102,0.0116,0.0097,0.005,0.0053,0.0077,0.0157,0.0171,0.0181,0.0062,0.0062,0.0062,0.0062,0.0062,0.0119,0.0146,0.0148,0.018,0.0191,0.0217,0.0219,0.019,0.0201,0.0139,0.0164,0.0134,0.0199,0.0067,0.0066,0.0066,0.0065,0.0065,0.0064,0.0172,0.0185,0.0195,0.0241,0.0285,0.029,0.0364,0.0329,0.0276,0.0296,0.0298,0.0297,0.0211,0.0298,0.0299,0.0299,0.03,0.03,0.03,0.022,0.0233,0.0273,0.0308,0.0346,0.0412,0.0443,0.0462,0.0438,0.0388,0.0388,0.0237,0.0229,0.0225,0.0307,0.0306,0.0305,0.0304,0.0304,0.0285,0.0282,0.0348,0.0387,0.0477,0.0572,0.0594,0.0632,0.0621,0.0616,0.044,0.0435,0.0424,0.0413,0.0413,0.0539,0.0539,0.0539,0.0539,0.0329,0.0331,0.0418,0.0493,0.0593,0.0653,0.0763,0.0753,0.067,0.0595,0.0592,0.0534,0.0524,0.0514,0.05,0.0499,0.0649,0.0649,0.0649,0.0376,0.0394,0.0466,0.0526,0.0636,0.0744,0.0827,0.081,0.0686,0.0651,0.0587,0.0551,0.0455,0.0443,0.0414,0.0398,0.0391,0,0]}],[{"header":{"parameterUnit":"m.s-1","parameterCategory":2,"la1":30.2992,"la2":30.254,"lo1":-89.0895,"lo2":-89.0443,"dy":0.0025,"dx":0.0025,"nx":19,"ny":19,"refTime":"2026-03-07T03:00:00:Z","depth":"4","parameterNumber":2,"parameterNumberName":"U-component_of_CURRENTS"},"data":[0,0,0,0.1181,0.1183,0.1309,0.1309,0.1412,0.1413,0,0,0,0,0,0,0,0,0,0,0,0.1141,0.1142,0.118,0.1183,0.1309,0.1309,0.1412,0.1413,0,0,0,0,0,0,0,0,0,0,0,0.1141,0.1142,0.1143,0.1184,0.1309,0.1309,0.1412,0.1333,0,0,0,0,0,0,0,0,0,0,0.1219,0.1197,0.1142,0.1143,0.1184,0.1308,0.1309,0.133,0.1338,0.1337,0,0.136,0,0.1383,0.1418,0.1418,0,0,0,0.119,0.1191,0.1214,0.1143,0.1185,0.1308,0.1254,0.1335,0.1344,0.1347,0.1361,0.1366,0.1385,0.1418,0.1419,0.1487,0.1487,0,0,0.1183,0.1173,0.1208,0.122,0.1222,0.125,0.1258,0.1341,0.1357,0.1362,0.1368,0.1386,0.1419,0.1419,0.1487,0.1487,0,0,0,0.1159,0.1169,0.1192,0.1215,0.124,0.1253,0.1263,0.1353,0.1359,0.137,0.1388,0.1419,0.142,0.1486,0.1487,0.1507,0,0,0,0.1155,0.1154,0.1189,0.1185,0.1238,0.1308,0.1273,0.1353,0.1363,0.1387,0.1419,0.1421,0.1486,0.1486,0.1506,0.1519,0,0,0,0.1135,0.1152,0.1165,0.1184,0.1234,0.1307,0.1319,0.1356,0.1373,0.1418,0.1421,0.1486,0.1486,0.1505,0.1517,0.1564,0,0,0,0.1121,0.114,0.1165,0.1194,0.1233,0.1288,0.1319,0.1377,0.1416,0.142,0.1486,0.1487,0.1505,0.1516,0.1563,0.1373,0,0,0,0.1129,0.1141,0.1155,0.118,0.1218,0.1271,0.1328,0.1396,0.142,0.1455,0.1458,0.1507,0.1517,0.1564,0.1401,0,0,0,0,0.1146,0.1156,0.1172,0.1206,0.125,0.131,0.1374,0.1409,0.1474,0.1445,0.151,0.1516,0.1545,0.1429,0.1489,0.1489,0.1489,0.1489,0.1489,0.1142,0.116,0.1181,0.1214,0.126,0.1343,0.1399,0.1458,0.1476,0.1511,0.1535,0.1588,0.1464,0.1536,0.1536,0.1536,0.1536,0.1536,0.1536,0.1134,0.1137,0.1181,0.1211,0.1275,0.1337,0.1437,0.1478,0.1567,0.1558,0.1586,0.146,0.1539,0.1538,0.1538,0.1538,0.1537,0.1537,0.1537,0.1113,0.1114,0.1147,0.1192,0.1262,0.1348,0.1432,0.1519,0.1589,0.1627,0.1529,0.1615,0.1613,0.1656,0.1656,0.1656,0.1656,0.1657,0.1657,0.107,0.1098,0.1115,0.117,0.1211,0.13,0.1442,0.1503,0.1596,0.1539,0.165,0.1629,0.1625,0.162,0.1661,0.166,0.166,0.1659,0.1659,0.1027,0.1049,0.1062,0.1092,0.1162,0.1205,0.1362,0.1436,0.1492,0.149,0.1495,0.1502,0.1485,0.1485,0.1474,0.1474,0.1471,0.1469,0,0.0996,0.1004,0.1014,0.103,0.1057,0.1144,0.1173,0.1266,0.1355,0.1307,0.1502,0.1505,0.1509,0.1486,0.1483,0.1468,0,0,0,0.0968,0.0972,0.0965,0.0978,0.0992,0.1055,0.1174,0.1166,0.1334,0.1331,0.1412,0.1427,0.1562,0.1673,0.1664,0.1659,0.1652,0,0]},{"header":{"parameterUnit":"m.s-1","parameterCategory":2,"la1":30.2992,"la2":30.254,"lo1":-89.0895,"lo2":-89.0443,"dy":0.0025,"dx":0.0025,"nx":19,"ny":19,"refTime":"2026-03-07T03:00:00:Z","depth":"4","parameterNumber":3,"parameterNumberName":"V-component_of_CURRENTS"},"data":[0,0,0,-0.0056,-0.0056,-0.0061,-0.0061,-0.0041,-0.004,0,0,0,0,0,0,0,0,0,0,0,-0.0053,-0.0053,-0.0056,-0.0056,-0.0061,-0.0061,-0.0041,-0.004,0,0,0,0,0,0,0,0,0,0,0,-0.0053,-0.0053,-0.0053,-0.0056,-0.0061,-0.0061,-0.0041,-0.0043,0,0,0,0,0,0,0,0,0,0,-0.0041,-0.004,-0.0053,-0.0053,-0.0056,-0.0061,-0.0061,-0.0043,-0.0043,-0.0032,0,-0.0034,0,-0.0038,-0.0039,-0.0039,0,0,0,-0.0053,-0.004,-0.0046,-0.0053,-0.0056,-0.0061,-0.0058,-0.0043,-0.0043,-0.0031,-0.0034,-0.0033,-0.0037,-0.0038,-0.0038,0.0017,0.0017,0,0,-0.0053,-0.0048,-0.0046,-0.0045,-0.0059,-0.0058,-0.0058,-0.0043,-0.004,-0.0034,-0.0033,-0.0037,-0.0038,-0.0038,0.0017,0.0017,0,0,0,-0.0054,-0.0048,-0.0054,-0.0046,-0.0049,-0.0058,-0.0058,-0.004,-0.0044,-0.0033,-0.0037,-0.0038,-0.0038,0.0016,0.0017,0.0062,0,0,0,-0.0054,-0.0049,-0.0054,-0.0051,-0.005,-0.0048,-0.0056,-0.0045,-0.0044,-0.0037,-0.0038,-0.0038,0.0016,0.0017,0.006,0.0095,0,0,0,-0.0052,-0.0049,-0.0051,-0.0051,-0.0055,-0.0048,-0.0051,-0.0045,-0.0046,-0.0039,-0.0038,0.0015,0.0016,0.0058,0.0091,0.0106,0,0,0,-0.0045,-0.0029,-0.0051,-0.0027,-0.0055,-0.0026,-0.0051,-0.0036,-0.0027,-0.0038,0.0016,0.0017,0.0057,0.0088,0.0104,0.0106,0,0,0,-0.0016,-0.0025,-0.0009,-0.0029,0.001,-0.0025,0.0021,0.0012,-0.0008,0.0012,0.0013,0.006,0.0091,0.0105,0.0164,0,0,0,0,0.0006,0.0018,0.0027,0.0041,0.0046,0.0066,0.005,0.0044,0.005,0.0001,0.0068,0.0086,0.0093,0.0089,0.0022,0.0021,0.0021,0.0021,0.0021,0.0059,0.0063,0.01,0.011,0.0127,0.0129,0.014,0.0129,0.0099,0.0106,0.0127,0.0179,0.0177,0.0124,0.0124,0.0125,0.0125,0.0125,0.0125,0.0116,0.014,0.0153,0.0187,0.0201,0.0232,0.0233,0.021,0.0218,0.0182,0.0186,0.0143,0.013,0.0129,0.0128,0.0128,0.0127,0.0127,0.0127,0.0154,0.0166,0.0182,0.0231,0.0279,0.0292,0.0336,0.0314,0.027,0.028,0.0254,0.0213,0.0203,0.027,0.027,0.027,0.027,0.027,0.0271,0.0179,0.0197,0.0235,0.028,0.0321,0.037,0.0392,0.0391,0.0348,0.0321,0.0291,0.0228,0.0223,0.0211,0.0274,0.0273,0.0273,0.0273,0.0272,0.0221,0.0221,0.0279,0.0318,0.0403,0.044,0.046,0.0443,0.0437,0.0406,0.0334,0.033,0.0313,0.0306,0.0296,0.0387,0.0387,0.0387,0,0.0246,0.025,0.0319,0.0382,0.0452,0.0482,0.0498,0.0489,0.0429,0.0419,0.042,0.0339,0.0335,0.0315,0.031,0.0298,0,0,0,0.0276,0.0291,0.0342,0.0393,0.047,0.0491,0.0503,0.0488,0.0441,0.0433,0.0394,0.0392,0.0339,0.0285,0.025,0.0244,0.0223,0,0]}]]